SCP
-0 0 -0 0 0 0 0 0 0 0 0 0 0 0 0 0 0 -0 0 0 -0 -0 -0 0 0 -0 0 0 0 0 0 0 0 0 0 0 0 0 0 0 -0 0 -0 0 0 0 -0
-0 0 0 0 0 0 0 0 0 0 0 0 0 0 0 0 0 -0 -0 -0 -0 -0 0 0 0 0 0 0 -0 0 -0 0 0 -0 0 0 0 0 0 0 -0 0 0 -0 -0 -0 -0
0 0 0 0 0 -0 0 0 0 0 0 0 0 0 0 0 0 0 0 -0 -0 0 0 0 0 0 0 0 0 0 0 0 0 0 0 0 0 0 0 0 -0 0 0 -0 -0 0 0
0 0 0 0 0 0 0 0 0 0 0 0 0 0 0 0 0 0 0 -0 -0 0 0 0 0 0 0 0 0 0 0 0 0 0 0 0 0 0 -0 0 -0 -0 -0 0 0 0 0
0 0 0 0 0 0 0 0 0 0 0 0 0 0 0 0 0 -0 -0 -0 0 -0 -0 0 0 0 0 0 0 0 -0 0 0 0 0 0 0 0 0 0 0 0 0 -0 -0 -0 0
0 0 -0 -0 0 0 0 0 0 -0 -0 -0 -0 -0 -0 -0 -0 -0 -0 -0 0 0 0 0 0 0 0 0 0 0 0 0 0 0 0 0 0 0 -0 0 0 -0 0 0 -0 0 0
0 -0 -0 -0 -0 -0 0 0 0 0 -0 -0 -0 -0 -0 -0 -0 0 0 0 0 0 0 0 0 0 0 -0 0 0 0 0 0 0 0 -0 -0 -0 -0 0 -0 0 -0 -0 -0 -0 0
0 -0 -0 0 -0 -0 0 0 0 0 0 0 -0 -0 -0 -0 -0 -0 0 0 0 0 0 0 0 0 -0 0 0 0 0 0 0 0 0 0 -0 -0 0 0 0 0 0 0 0 0 0
0 -0 0 0 0 0 0 0 0 0 0 -0 -0 -0 -0 -0 -0 0 0 0 0 0 0 0 0 -0 0 0 0 0 0 0 0 0 0 0 0 0 0 0 -0 -0 -0 -0 0 0 -0
0 0 -0 0 0 0 0 0 -0 -0 0 0 -0 -0 -0 -0 0 0 0 0 0 0 0 0 0 0 0 0 0 0 0 0 0 0 0 0 0 0 0 0 0 0 0 -0 -0 0 0
0 -0 -0 0 0 0 0 0 0 0 -0 -0 -0 0 -0 0 0 0 0 0 0 0 0 -0 0 0 0 0 0 0 -0 0 0 0 0 0 0 0 0 -0 0 0 0 0 0 -0 0
0 0 -0 -0 0 0 0 0 0 0 -0 -0 -0 -0 0 0 0 0 0 0 0 0 0 0 0 0 0 0 -0 -0 0 0 0 -0 -0 -0 0 0 0 0 0 -0 -0 0 0 0 0
0 0 0 -0 -0 -0 0 0 -0 -0 -0 -0 -0 -0 0 0 0 0 0 0 0 0 -0 0 0 0 0 0 -0 -0 0 0 0 0 -0 -0 0 0 0 0 0 0 0 0 -0 0 0
0 0 0 0 -0 -0 0 -0 -0 -0 -0 -0 -0 -0 0 0 0 0 0 0 0 -0 0 0 0 0 -0 -0 0 0 0 0 0 0 0 0 0 0 0 -0 0 0 0 0 0 0 0
0 0 0 -0 0 0 0 0 -0 0 0 -0 -0 -0 0 0 0 -0 0 0 -0 -0 0 -0 0 0 0 -0 0 0 0 0 0 -0 -0 -0 -0 0 0 0 0 0 0 0 0 0 0
0 0 0 0 0 0 0 0 0 0 -0 0 0 0 0 -0 0 0 0 -0 -0 0 0 0 0 0 -0 0 0 0 0 0 0 0 0 -0 -0 0 0 -0 0 0 0 -0 -0 0 0
0 0 0 0 0 0 0 0 0 0 -0 -0 0 0 -0 0 0 0 0 -0 0 0 0 0 0 0 0 -0 0 0 0 -0 -0 0 0 0 0 -0 0 0 0 0 0 0 0 0 0
0 0 0 0 0 0 0 0 0 0 -0 0 0 0 0 0 0 0 -0 -0 0 0 0 0 0 0 0 0 0 0 0 0 -0 0 0 0 0 -0 0 0 0 0 0 0 0 0 -0
0 0 0 0 0 0 0 0 0 0 0 0 0 0 -0 0 0 0 0 0 0 0 0 0 0 0 0 0 0 0 0 0 0 0 0 0 0 0 -0 -0 0 0 0 -0 0 0 0
0 0 0 0 0 0 0 0 0 0 0 0 0 0 0 0 0 -0 0 0 0 0 0 0 0 0 0 0 0 0 0 0 0 0 0 0 0 0 0 -0 0 0 0 0 -0 -0 0
0 0 -0 0 0 0 0 0 0 0 0 0 -0 0 0 0 0 0 -0 0 0 0 0 0 0 0 0 0 0 0 0 -0 0 0 0 0 0 0 -0 -0 -0 0 0 0 0 0 0
0 0 0 0 0 0 0 0 0 0 0 0 0 0 0 0 0 0 0 0 0 0 -0 0 0 0 0 0 -0 -0 -0 -0 -0 0 0 0 0 0 0 0 -0 0 0 0 -0 0 0
0 0 0 0 0 0 0 0 0 0 0 0 0 0 0 -0 0 0 0 0 0 0 0 0 -0 -0 -0 0 0 -0 0 0 -0 -0 0 0 0 0 0 0 0 0 -0 0 0 0 0
0 0 0 0 0 0 0 0 0 0 0 0 0 0 0 -0 0 0 0 0 0 0 0 0 0 0 0 -0 -0 -0 -0 0 0 0 0 0 0 0 0 0 0 0 -0 -0 -0 0 0
0 0 0 0 0 0 0 0 0 0 0 0 0 0 0 -0 0 0 0 0 0 0 0 0 0 0 0 0 -0 0 0 0 -0 0 0 0 0 0 0 0 0 0 0 -0 0 0 0
0 0 0 0 0 0 0 0 0 0 0 0 0 0 0 0 0 0 0 0 0 0 0 0 0 0 0 0 0 0 0 0 0 0 0 -0 0 0 0 0 0 0 0 0 0 0 0
0 0 0 0 0 0 0 0 0 0 0 0 0 0 0 0 -0 0 0 0 0 0 0 0 0 0 0 0 0 0 0 -0 0 0 0 -0 0 0 0 0 0 0 0 0 0 1 0
0 0 0 0 0 0 0 0 0 0 0 0 0 0 0 0 -0 0 -0 0 0 0 0 0 0 0 0 1 0 0 0 0 0 0 -0 -0 0 0 0 0 0 0 1 0 0 0 1
0 0 0 0 0 0 0 0 0 0 0 0 0 0 0 0 0 -0 -0 0 0 0 0 0 0 0 0 0 0 0 0 0 0 -0 0 0 0 0 0 0 0 0 0 0 0 0 0
Wind_Speed_500mb
25 25 26 26 27 29 30 31 31 31 32 33 33 34 35 36 36 36 36 37 35 30 24 20 19 17 16 15 35 7 13 13 21 22 31 26 43 50 11 22 33 8 10 12 24 31 61
24 25 26 27 27 29 30 31 32 34 34 35 35 35 36 38 39 38 38 37 34 29 22 17 17 16 15 16 15 25 21 15 15 21 31 26 34 50 43 20 14 2 21 26 1 25 71
25 25 26 28 29 31 32 33 34 34 36 37 37 37 37 38 39 39 37 36 31 24 19 15 15 17 23 44 9 2 12 20 22 25 39 32 39 50 49 23 34 4 9 18 14 14 17
27 27 29 30 31 32 34 35 36 37 37 39 40 40 39 38 39 38 35 34 27 19 15 12 12 15 22 3 24 20 15 19 24 26 35 41 33 41 27 41 39 19 11 10 4 9 13
30 31 31 32 33 34 35 36 38 38 39 40 41 42 41 39 39 38 34 31 26 18 13 10 9 15 25 10 30 37 27 33 26 27 24 26 30 23 36 15 16 10 7 12 13 13 14
31 32 34 35 36 36 37 37 38 39 40 40 42 43 42 39 37 38 31 28 23 20 11 13 15 18 23 28 25 28 34 28 32 29 35 36 30 7 13 8 11 10 12 6 11 16 9
32 34 34 35 36 37 37 36 36 38 39 39 41 43 41 37 34 35 25 18 24 5 10 20 14 28 33 5 14 24 28 32 34 41 14 39 9 15 27 29 13 6 1 15 21 21 3
35 36 37 35 35 36 36 35 35 37 38 37 39 42 40 35 30 25 19 18 24 30 30 40 50 57 61 35 10 22 20 38 34 17 22 14 22 23 34 33 6 13 27 36 15 16 8
34 37 35 34 34 35 35 36 36 37 38 38 38 40 40 32 22 8 17 22 20 28 20 42 54 60 53 32 25 36 36 35 15 19 25 19 20 34 36 34 25 20 27 13 14 7 9
33 35 35 33 33 35 35 34 36 37 38 38 38 38 39 36 12 16 12 28 20 24 7 14 17 37 55 42 32 50 42 39 15 22 26 17 37 33 33 24 24 6 23 35 12 9 8
34 35 36 34 34 33 34 36 37 37 38 39 38 35 34 31 29 26 16 18 22 20 7 16 16 14 28 37 7 26 39 51 21 22 16 28 27 25 30 29 9 13 30 16 13 12 6
36 37 35 36 37 34 36 37 37 39 40 38 38 34 38 21 31 12 19 22 22 4 12 10 18 16 14 32 42 17 34 42 39 23 23 23 51 24 28 26 19 32 11 12 18 8 10
41 38 37 36 37 36 36 36 37 39 40 41 42 35 37 35 15 10 16 16 3 8 16 18 12 21 19 18 21 18 20 14 14 12 21 26 29 28 23 17 22 11 13 3 10 6 7
42 42 38 36 36 37 36 37 35 37 40 45 45 38 33 34 17 10 11 7 10 21 19 10 8 25 18 20 21 25 19 16 19 20 13 15 16 16 18 22 14 15 15 10 13 6 7
42 38 38 35 35 35 36 36 35 35 38 45 47 35 34 17 11 17 10 9 10 9 34 31 13 9 16 20 19 21 16 18 20 26 21 13 20 20 28 26 15 21 6 9 12 3 8
41 36 33 34 33 33 34 35 33 31 32 41 48 43 28 23 22 19 9 10 15 29 41 38 12 12 6 16 21 21 19 23 20 26 26 27 15 19 26 30 15 16 8 8 7 11 7
38 35 32 30 30 32 31 31 30 29 26 28 30 20 11 27 33 23 11 12 23 54 52 16 15 23 28 24 19 17 20 21 26 26 28 24 11 40 11 15 18 9 6 7 5 14 9
35 34 32 30 28 27 27 27 26 27 25 15 12 7 29 29 17 15 17 15 23 51 66 20 10 18 22 28 17 15 21 17 30 35 23 21 8 11 21 16 31 21 24 25 10 16 12
35 33 30 28 28 25 23 23 21 21 25 26 8 20 18 28 9 17 28 36 48 41 42 32 12 15 24 20 17 17 12 19 39 16 13 11 8 9 23 21 13 23 17 20 17 13 12
35 35 32 27 26 23 22 20 18 15 17 18 9 6 20 31 38 28 26 30 30 52 41 31 16 21 20 21 18 13 19 21 34 16 29 10 5 11 12 12 7 12 15 29 12 8 5
35 35 31 27 23 22 20 19 17 13 14 15 7 9 20 5 11 19 27 30 40 38 36 20 17 26 20 15 17 12 17 17 31 18 12 11 7 13 3 13 7 19 42 39 43 11 12
34 34 30 29 23 19 17 17 17 13 11 11 10 14 23 37 35 27 24 29 36 38 33 12 18 25 24 10 10 6 5 4 8 20 5 13 11 11 8 16 19 28 32 41 51 17 17
34 34 29 27 25 22 16 14 15 13 9 4 17 16 18 19 18 19 19 30 31 40 41 46 24 28 23 15 21 18 32 30 16 4 7 12 9 7 15 19 19 17 13 32 5 25 31
33 32 29 25 24 22 19 16 17 15 13 11 8 18 12 12 18 20 33 37 36 35 24 42 26 13 9 6 8 11 20 37 28 28 28 28 14 9 7 9 2 16 28 17 28 16 26
33 29 28 23 22 21 21 19 19 15 16 18 4 8 11 12 28 28 34 32 37 37 34 32 45 24 21 32 6 2 8 15 19 31 43 20 8 6 11 5 12 13 16 14 13 7 21
31 29 25 19 19 19 21 21 21 18 16 18 8 12 9 15 15 26 34 13 6 9 19 28 70 48 23 13 3 7 8 2 15 27 41 35 21 14 5 13 12 15 10 45 13 8 18
29 30 27 19 19 19 20 20 21 20 14 15 14 9 11 17 49 28 18 20 18 15 6 35 50 26 45 11 4 9 3 3 5 2 13 20 19 20 17 11 8 2 29 40 11 3 15
28 28 25 19 18 17 17 18 19 19 16 16 16 15 20 18 60 42 37 43 31 19 7 29 24 21 13 13 6 4 4 1 8 5 8 5 11 9 11 15 5 14 11 14 16 30 5
27 27 19 15 15 14 15 16 20 22 19 16 18 21 18 27 37 39 41 47 45 35 30 13 11 29 15 8 5 6 4 1 6 7 7 6 8 12 8 6 3 11 46 39 41 44 44
Wind_Direction_500mb
359 359 358 358 357 356 355 353 353 350 348 345 344 342 339 336 335 333 332 332 328 324 311 299 294 291 286 265 245 297 296 306 252 252 258 273 287 293 339 310 307 248 330 220 174 149 142
348 348 348 349 350 350 349 348 348 346 344 342 339 338 336 334 333 332 331 331 328 322 311 297 289 287 275 255 218 274 254 273 261 249 259 269 274 290 298 257 307 48 324 304 97 163 121
336 337 337 337 337 338 338 339 339 340 339 338 336 335 334 332 331 330 330 330 327 320 309 293 283 278 265 243 170 257 260 221 242 243 256 270 270 293 296 320 320 332 256 284 251 170 138
328 327 327 328 329 330 331 333 332 332 332 333 332 333 332 331 329 328 327 324 322 314 303 289 277 286 265 229 230 226 220 251 256 246 259 268 291 307 284 296 298 278 260 271 239 157 152
322 322 323 322 323 323 324 325 327 327 325 326 328 329 331 330 329 326 325 316 314 303 292 269 264 282 267 288 228 222 228 248 244 256 261 266 281 305 306 295 302 285 275 331 335 326 175
317 317 318 320 319 320 320 320 322 324 323 322 323 326 329 328 328 327 327 315 308 290 279 269 226 290 250 224 232 222 228 229 243 246 243 251 262 275 287 277 261 293 339 348 280 283 178
312 312 312 314 316 318 320 319 320 323 322 320 320 324 325 327 325 326 333 342 353 14 234 225 249 232 287 301 284 207 206 219 233 252 245 232 210 227 252 253 240 269 182 279 274 294 66
313 312 310 310 311 314 318 317 318 320 323 321 320 321 323 325 321 320 332 325 339 319 301 278 265 254 264 276 216 211 217 206 215 234 251 252 223 235 249 256 213 5 281 271 254 284 166
319 318 311 308 310 311 315 316 317 318 320 321 321 323 323 323 317 300 313 328 346 319 288 289 241 233 241 249 233 261 200 227 200 226 241 219 235 225 245 260 246 186 245 278 191 244 256
324 326 322 313 307 310 312 313 316 317 317 319 320 323 324 324 299 274 310 353 326 321 294 266 187 227 223 232 249 242 227 201 229 214 239 243 239 245 234 244 259 206 288 298 230 159 244
323 321 322 322 312 306 308 312 313 316 317 317 317 319 314 323 302 302 327 343 337 315 301 167 146 206 189 195 281 199 218 200 208 234 193 248 242 242 251 241 139 218 243 282 323 282 273
322 317 315 318 321 314 307 308 310 313 315 316 312 312 305 299 295 332 325 339 330 261 246 163 144 169 197 200 234 253 207 217 221 242 251 228 246 242 243 256 196 161 235 314 334 288 52
319 319 315 314 315 318 315 309 309 309 310 314 309 304 291 283 212 329 321 326 212 239 313 153 173 167 188 201 235 244 192 203 198 211 253 266 245 255 241 265 282 223 142 62 295 12 209
316 316 318 314 311 311 314 314 312 306 310 314 310 305 283 260 253 228 326 310 246 262 252 305 142 161 172 208 207 248 173 204 213 240 217 236 277 246 253 209 227 242 202 162 216 123 255
314 311 310 311 312 313 312 312 315 310 314 317 315 311 279 215 198 199 258 243 233 237 337 333 153 219 214 189 202 201 237 198 208 218 231 228 239 235 229 252 192 267 262 219 105 187 77
317 317 313 310 310 311 314 314 318 312 321 324 322 321 279 182 220 153 226 254 279 312 309 311 345 305 287 224 186 179 219 207 212 208 220 260 295 260 212 224 219 193 186 5 21 165 177
318 318 317 315 312 311 311 316 319 315 327 320 329 322 104 151 175 201 229 243 278 277 279 308 310 311 314 307 191 199 232 228 201 221 205 233 213 277 294 198 190 246 160 187 240 147 162
319 318 320 317 314 312 312 314 318 317 331 320 309 272 156 163 185 224 242 252 262 280 285 267 269 286 292 310 317 268 208 234 220 203 194 223 208 265 252 240 193 199 197 203 149 267 226
321 319 317 315 314 315 313 312 319 319 341 351 304 280 229 193 236 237 249 244 254 271 280 284 245 258 280 286 313 312 318 232 258 196 185 223 249 264 305 321 223 200 233 210 192 205 273
321 320 316 313 310 310 309 307 313 307 328 342 302 272 212 206 236 266 290 293 268 257 259 280 286 283 281 292 289 300 309 308 298 240 189 100 288 184 218 233 63 305 308 320 248 258 124
320 320 318 311 306 303 301 302 301 284 310 332 247 274 354 254 241 250 252 274 289 293 279 219 277 282 270 291 309 10 354 335 324 306 139 121 239 277 28 133 174 185 264 286 294 168 130
316 317 314 312 305 295 291 294 289 268 288 303 293 344 332 302 292 288 296 236 266 288 298 219 208 256 279 288 134 276 342 300 284 354 299 160 232 260 216 231 207 217 257 274 281 106 100
314 315 312 309 304 298 280 271 272 261 274 294 325 298 325 294 301 308 305 333 320 327 287 315 227 220 248 145 168 228 226 247 240 86 309 321 180 197 262 249 204 244 230 255 339 119 143
311 312 312 308 302 293 282 255 255 252 244 243 301 343 302 291 308 303 330 321 324 332 309 322 332 35 18 48 138 316 289 268 280 284 256 275 231 160 184 33 257 256 251 285 289 163 182
307 309 308 303 299 293 287 258 248 239 248 255 198 321 312 298 311 306 347 336 334 341 335 325 329 338 4 288 269 303 286 325 358 337 324 268 195 210 128 180 291 323 281 256 192 288 89
302 304 305 300 292 291 288 267 236 229 246 244 203 249 257 299 240 356 322 358 331 334 340 331 348 337 234 264 353 327 52 306 331 345 309 319 269 180 176 145 202 254 294 345 347 39 127
294 300 296 293 289 281 282 273 231 223 231 240 197 205 239 275 273 316 309 333 307 305 272 330 341 324 346 239 51 46 66 318 217 93 315 334 277 195 215 213 132 181 295 315 84 14 337
289 294 288 288 283 275 276 272 219 214 225 239 209 226 248 264 276 270 280 298 311 332 16 331 321 4 340 43 80 103 111 182 306 242 126 268 290 272 214 202 238 8 20 95 259 349 351
284 289 272 271 273 273 273 271 212 210 216 238 247 211 249 266 264 275 277 254 248 248 289 305 289 302 72 37 355 145 129 181 106 303 284 239 52 307 301 142 47 45 128 124 60 51 316
Wind_Speed_850mb
25 25 26 26 27 29 30 31 31 31 32 33 33 34 35 36 36 36 36 37 35 30 24 20 19 17 16 15 35 7 13 13 21 22 31 26 43 50 11 22 33 8 10 12 24 31 61
24 25 26 27 27 29 30 31 32 34 34 35 35 35 36 38 39 38 38 37 34 29 22 17 17 16 15 16 15 25 21 15 15 21 31 26 34 50 43 20 14 2 21 26 1 25 71
25 25 26 28 29 31 32 33 34 34 36 37 37 37 37 38 39 39 37 36 31 24 19 15 15 17 23 44 9 2 12 20 22 25 39 32 39 50 49 23 34 4 9 18 14 14 17
27 27 29 30 31 32 34 35 36 37 37 39 40 40 39 38 39 38 35 34 27 19 15 12 12 15 22 3 24 20 15 19 24 26 35 41 33 41 27 41 39 19 11 10 4 9 13
30 31 31 32 33 34 35 36 38 38 39 40 41 42 41 39 39 38 34 31 26 18 13 10 9 15 25 10 30 37 27 33 26 27 24 26 30 23 36 15 16 10 7 12 13 13 14
31 32 34 35 36 36 37 37 38 39 40 40 42 43 42 39 37 38 31 28 23 20 11 13 15 18 23 28 25 28 34 28 32 29 35 36 30 7 13 8 11 10 12 6 11 16 9
32 34 34 35 36 37 37 36 36 38 39 39 41 43 41 37 34 35 25 18 24 5 10 20 14 28 33 5 14 24 28 32 34 41 14 39 9 15 27 29 13 6 1 15 21 21 3
35 36 37 35 35 36 36 35 35 37 38 37 39 42 40 35 30 25 19 18 24 30 30 40 50 57 61 35 10 22 20 38 34 17 22 14 22 23 34 33 6 13 27 36 15 16 8
34 37 35 34 34 35 35 36 36 37 38 38 38 40 40 32 22 8 17 22 20 28 20 42 54 60 53 32 25 36 36 35 15 19 25 19 20 34 36 34 25 20 27 13 14 7 9
33 35 35 33 33 35 35 34 36 37 38 38 38 38 39 36 12 16 12 28 20 24 7 14 17 37 55 42 32 50 42 39 15 22 26 17 37 33 33 24 24 6 23 35 12 9 8
34 35 36 34 34 33 34 36 37 37 38 39 38 35 34 31 29 26 16 18 22 20 7 16 16 14 28 37 7 26 39 51 21 22 16 28 27 25 30 29 9 13 30 16 13 12 6
36 37 35 36 37 34 36 37 37 39 40 38 38 34 38 21 31 12 19 22 22 4 12 10 18 16 14 32 42 17 34 42 39 23 23 23 51 24 28 26 19 32 11 12 18 8 10
41 38 37 36 37 36 36 36 37 39 40 41 42 35 37 35 15 10 16 16 3 8 16 18 12 21 19 18 21 18 20 14 14 12 21 26 29 28 23 17 22 11 13 3 10 6 7
42 42 38 36 36 37 36 37 35 37 40 45 45 38 33 34 17 10 11 7 10 21 19 10 8 25 18 20 21 25 19 16 19 20 13 15 16 16 18 22 14 15 15 10 13 6 7
42 38 38 35 35 35 36 36 35 35 38 45 47 35 34 17 11 17 10 9 10 9 34 31 13 9 16 20 19 21 16 18 20 26 21 13 20 20 28 26 15 21 6 9 12 3 8
41 36 33 34 33 33 34 35 33 31 32 41 48 43 28 23 22 19 9 10 15 29 41 38 12 12 6 16 21 21 19 23 20 26 26 27 15 19 26 30 15 16 8 8 7 11 7
38 35 32 30 30 32 31 31 30 29 26 28 30 20 11 27 33 23 11 12 23 54 52 16 15 23 28 24 19 17 20 21 26 26 28 24 11 40 11 15 18 9 6 7 5 14 9
35 34 32 30 28 27 27 27 26 27 25 15 12 7 29 29 17 15 17 15 23 51 66 20 10 18 22 28 17 15 21 17 30 35 23 21 8 11 21 16 31 21 24 25 10 16 12
35 33 30 28 28 25 23 23 21 21 25 26 8 20 18 28 9 17 28 36 48 41 42 32 12 15 24 20 17 17 12 19 39 16 13 11 8 9 23 21 13 23 17 20 17 13 12
35 35 32 27 26 23 22 20 18 15 17 18 9 6 20 31 38 28 26 30 30 52 41 31 16 21 20 21 18 13 19 21 34 16 29 10 5 11 12 12 7 12 15 29 12 8 5
35 35 31 27 23 22 20 19 17 13 14 15 7 9 20 5 11 19 27 30 40 38 36 20 17 26 20 15 17 12 17 17 31 18 12 11 7 13 3 13 7 19 42 39 43 11 12
34 34 30 29 23 19 17 17 17 13 11 11 10 14 23 37 35 27 24 29 36 38 33 12 18 25 24 10 10 6 5 4 8 20 5 13 11 11 8 16 19 28 32 41 51 17 17
34 34 29 27 25 22 16 14 15 13 9 4 17 16 18 19 18 19 19 30 31 40 41 46 24 28 23 15 21 18 32 30 16 4 7 12 9 7 15 19 19 17 13 32 5 25 31
33 32 29 25 24 22 19 16 17 15 13 11 8 18 12 12 18 20 33 37 36 35 24 42 26 13 9 6 8 11 20 37 28 28 28 28 14 9 7 9 2 16 28 17 28 16 26
33 29 28 23 22 21 21 19 19 15 16 18 4 8 11 12 28 28 34 32 37 37 34 32 45 24 21 32 6 2 8 15 19 31 43 20 8 6 11 5 12 13 16 14 13 7 21
31 29 25 19 19 19 21 21 21 18 16 18 8 12 9 15 15 26 34 13 6 9 19 28 70 48 23 13 3 7 8 2 15 27 41 35 21 14 5 13 12 15 10 45 13 8 18
29 30 27 19 19 19 20 20 21 20 14 15 14 9 11 17 49 28 18 20 18 15 6 35 50 26 45 11 4 9 3 3 5 2 13 20 19 20 17 11 8 2 29 40 11 3 15
28 28 25 19 18 17 17 18 19 19 16 16 16 15 20 18 60 42 37 43 31 19 7 29 24 21 13 13 6 4 4 1 8 5 8 5 11 9 11 15 5 14 11 14 16 30 5
27 27 19 15 15 14 15 16 20 22 19 16 18 21 18 27 37 39 41 47 45 35 30 13 11 29 15 8 5 6 4 1 6 7 7 6 8 12 8 6 3 11 46 39 41 44 44
Wind_Direction_850mb
359 359 358 358 357 356 355 353 353 350 348 345 344 342 339 336 335 333 332 332 328 324 311 299 294 291 286 265 245 297 296 306 252 252 258 273 287 293 339 310 307 248 330 220 174 149 142
348 348 348 349 350 350 349 348 348 346 344 342 339 338 336 334 333 332 331 331 328 322 311 297 289 287 275 255 218 274 254 273 261 249 259 269 274 290 298 257 307 48 324 304 97 163 121
336 337 337 337 337 338 338 339 339 340 339 338 336 335 334 332 331 330 330 330 327 320 309 293 283 278 265 243 170 257 260 221 242 243 256 270 270 293 296 320 320 332 256 284 251 170 138
328 327 327 328 329 330 331 333 332 332 332 333 332 333 332 331 329 328 327 324 322 314 303 289 277 286 265 229 230 226 220 251 256 246 259 268 291 307 284 296 298 278 260 271 239 157 152
322 322 323 322 323 323 324 325 327 327 325 326 328 329 331 330 329 326 325 316 314 303 292 269 264 282 267 288 228 222 228 248 244 256 261 266 281 305 306 295 302 285 275 331 335 326 175
317 317 318 320 319 320 320 320 322 324 323 322 323 326 329 328 328 327 327 315 308 290 279 269 226 290 250 224 232 222 228 229 243 246 243 251 262 275 287 277 261 293 339 348 280 283 178
312 312 312 314 316 318 320 319 320 323 322 320 320 324 325 327 325 326 333 342 353 14 234 225 249 232 287 301 284 207 206 219 233 252 245 232 210 227 252 253 240 269 182 279 274 294 66
313 312 310 310 311 314 318 317 318 320 323 321 320 321 323 325 321 320 332 325 339 319 301 278 265 254 264 276 216 211 217 206 215 234 251 252 223 235 249 256 213 5 281 271 254 284 166
319 318 311 308 310 311 315 316 317 318 320 321 321 323 323 323 317 300 313 328 346 319 288 289 241 233 241 249 233 261 200 227 200 226 241 219 235 225 245 260 246 186 245 278 191 244 256
324 326 322 313 307 310 312 313 316 317 317 319 320 323 324 324 299 274 310 353 326 321 294 266 187 227 223 232 249 242 227 201 229 214 239 243 239 245 234 244 259 206 288 298 230 159 244
323 321 322 322 312 306 308 312 313 316 317 317 317 319 314 323 302 302 327 343 337 315 301 167 146 206 189 195 281 199 218 200 208 234 193 248 242 242 251 241 139 218 243 282 323 282 273
322 317 315 318 321 314 307 308 310 313 315 316 312 312 305 299 295 332 325 339 330 261 246 163 144 169 197 200 234 253 207 217 221 242 251 228 246 242 243 256 196 161 235 314 334 288 52
319 319 315 314 315 318 315 309 309 309 310 314 309 304 291 283 212 329 321 326 212 239 313 153 173 167 188 201 235 244 192 203 198 211 253 266 245 255 241 265 282 223 142 62 295 12 209
316 316 318 314 311 311 314 314 312 306 310 314 310 305 283 260 253 228 326 310 246 262 252 305 142 161 172 208 207 248 173 204 213 240 217 236 277 246 253 209 227 242 202 162 216 123 255
314 311 310 311 312 313 312 312 315 310 314 317 315 311 279 215 198 199 258 243 233 237 337 333 153 219 214 189 202 201 237 198 208 218 231 228 239 235 229 252 192 267 262 219 105 187 77
317 317 313 310 310 311 314 314 318 312 321 324 322 321 279 182 220 153 226 254 279 312 309 311 345 305 287 224 186 179 219 207 212 208 220 260 295 260 212 224 219 193 186 5 21 165 177
318 318 317 315 312 311 311 316 319 315 327 320 329 322 104 151 175 201 229 243 278 277 279 308 310 311 314 307 191 199 232 228 201 221 205 233 213 277 294 198 190 246 160 187 240 147 162
319 318 320 317 314 312 312 314 318 317 331 320 309 272 156 163 185 224 242 252 262 280 285 267 269 286 292 310 317 268 208 234 220 203 194 223 208 265 252 240 193 199 197 203 149 267 226
321 319 317 315 314 315 313 312 319 319 341 351 304 280 229 193 236 237 249 244 254 271 280 284 245 258 280 286 313 312 318 232 258 196 185 223 249 264 305 321 223 200 233 210 192 205 273
321 320 316 313 310 310 309 307 313 307 328 342 302 272 212 206 236 266 290 293 268 257 259 280 286 283 281 292 289 300 309 308 298 240 189 100 288 184 218 233 63 305 308 320 248 258 124
320 320 318 311 306 303 301 302 301 284 310 332 247 274 354 254 241 250 252 274 289 293 279 219 277 282 270 291 309 10 354 335 324 306 139 121 239 277 28 133 174 185 264 286 294 168 130
316 317 314 312 305 295 291 294 289 268 288 303 293 344 332 302 292 288 296 236 266 288 298 219 208 256 279 288 134 276 342 300 284 354 299 160 232 260 216 231 207 217 257 274 281 106 100
314 315 312 309 304 298 280 271 272 261 274 294 325 298 325 294 301 308 305 333 320 327 287 315 227 220 248 145 168 228 226 247 240 86 309 321 180 197 262 249 204 244 230 255 339 119 143
311 312 312 308 302 293 282 255 255 252 244 243 301 343 302 291 308 303 330 321 324 332 309 322 332 35 18 48 138 316 289 268 280 284 256 275 231 160 184 33 257 256 251 285 289 163 182
307 309 308 303 299 293 287 258 248 239 248 255 198 321 312 298 311 306 347 336 334 341 335 325 329 338 4 288 269 303 286 325 358 337 324 268 195 210 128 180 291 323 281 256 192 288 89
302 304 305 300 292 291 288 267 236 229 246 244 203 249 257 299 240 356 322 358 331 334 340 331 348 337 234 264 353 327 52 306 331 345 309 319 269 180 176 145 202 254 294 345 347 39 127
294 300 296 293 289 281 282 273 231 223 231 240 197 205 239 275 273 316 309 333 307 305 272 330 341 324 346 239 51 46 66 318 217 93 315 334 277 195 215 213 132 181 295 315 84 14 337
289 294 288 288 283 275 276 272 219 214 225 239 209 226 248 264 276 270 280 298 311 332 16 331 321 4 340 43 80 103 111 182 306 242 126 268 290 272 214 202 238 8 20 95 259 349 351
284 289 272 271 273 273 273 271 212 210 216 238 247 211 249 266 264 275 277 254 248 248 289 305 289 302 72 37 355 145 129 181 106 303 284 239 52 307 301 142 47 45 128 124 60 51 316